Dewpoint
61 61 61 61 61 61 62 63 63 64 64 63 63 63 63 62 63 64 64 63 63 63 63 62 62 61 61 61 62 60 60 60 58 56 55 55 56 57 57 57 58 57 59 55 46 34 30 29 24 24 31 38 41 36 48 43 43 45 37 35 31 27 24 24 21 21 26 23 22 22 21 20 22 24 24 25 22 23 24 34 37 46 47 58 58 58 60 60
60 60 61 61 61 61 61 62 62 63 63 63 63 62 62 63 62 63 63 63 63 63 62 62 62 62 62 62 61 60 59 57 55 54 54 56 58 59 59 59 58 57 57 50 41 35 30 28 25 24 26 28 49 33 38 42 40 35 32 32 29 27 24 18 15 19 22 22 22 21 21 19 21 22 23 20 17 22 21 30 32 43 45 51 60 59 60 60
61 60 61 61 61 61 61 62 62 62 63 62 63 63 63 62 62 63 63 63 63 63 62 61 62 62 61 61 60 60 57 54 52 51 53 59 58 57 58 59 57 55 54 50 44 36 31 29 27 22 26 21 34 31 39 35 34 27 33 30 27 27 18 15 16 18 21 22 21 21 22 24 21 21 22 21 15 19 18 23 25 38 43 48 59 60 60 60
60 61 61 61 60 60 62 62 62 62 62 62 63 63 62 62 62 63 63 63 63 62 62 62 62 61 61 60 59 59 57 54 51 51 52 62 59 58 58 58 58 58 56 54 51 41 34 32 28 24 26 21 29 28 32 36 30 28 29 31 30 19 20 17 18 19 20 20 20 20 22 20 19 20 19 19 14 15 14 19 21 28 42 49 58 60 60 60
59 60 61 61 61 61 61 62 62 62 62 62 62 62 62 62 62 62 62 63 63 62 62 62 62 61 60 59 59 57 54 49 50 50 51 63 61 60 59 58 59 58 58 54 51 42 34 30 28 24 24 19 22 22 25 30 24 35 24 26 22 20 20 20 20 21 21 21 19 21 20 19 21 19 16 15 14 10 11 16 19 21 42 52 57 59 59 59
60 60 61 60 61 61 60 62 62 62 62 62 62 62 62 62 62 62 62 62 62 62 62 62 61 60 60 58 57 56 50 41 55 49 61 62 62 61 62 61 60 59 58 55 49 39 31 28 26 24 21 19 19 21 24 25 26 24 23 21 21 21 19 22 22 23 22 18 19 20 18 19 18 19 18 17 18 21 25 22 31 36 46 53 57 58 58 59
59 60 60 60 60 60 61 61 61 61 61 62 62 62 62 62 62 61 61 62 62 62 61 61 60 59 58 57 54 53 50 51 38 57 60 60 61 62 62 62 60 60 58 51 49 39 30 26 25 23 20 19 19 20 22 22 25 23 19 20 20 21 21 22 21 24 20 19 17 18 19 18 16 15 20 22 22 23 26 23 29 44 49 54 57 58 58 59
59 59 60 60 60 60 61 61 61 61 61 62 62 61 61 62 61 61 61 61 61 61 61 61 59 57 56 52 50 49 49 46 47 57 64 60 60 62 62 59 59 59 55 52 45 34 29 27 24 23 19 17 19 19 20 20 23 21 21 21 20 21 23 21 21 20 21 19 20 19 17 17 18 19 20 19 19 25 25 26 34 43 49 54 56 56 58 58
59 59 59 59 59 60 60 61 61 60 61 62 61 61 61 62 61 61 61 61 61 61 61 60 57 57 55 50 48 46 45 49 53 60 65 63 60 60 58 58 58 55 53 51 42 33 29 26 25 24 17 18 19 18 19 19 19 20 20 21 20 20 20 20 20 21 21 21 24 18 17 19 20 23 20 17 19 23 30 32 34 40 45 50 54 55 57 58
58 58 59 59 59 59 60 60 60 61 61 61 61 61 61 61 61 61 61 61 60 60 61 59 57 57 52 47 46 43 45 54 61 62 59 59 59 57 54 56 54 52 48 48 40 34 31 28 24 24 27 19 18 16 20 19 18 19 20 20 19 20 21 23 20 20 22 25 21 18 18 20 21 21 13 19 21 24 25 31 32 35 38 42 49 51 53 56
58 59 59 59 59 60 60 59 60 60 60 60 60 61 60 61 61 61 61 60 60 60 60 58 56 54 49 46 44 43 50 55 60 58 54 56 56 53 49 53 52 49 46 46 37 34 31 28 28 27 31 18 19 19 20 19 23 20 20 20 20 21 22 21 20 20 20 21 22 20 18 19 22 21 13 20 22 21 22 28 32 32 32 35 42 47 49 51
58 59 59 59 59 60 60 60 59 60 60 60 60 60 60 60 60 60 60 60 60 60 60 57 57 54 50 47 44 43 45 48 56 56 54 53 52 49 46 48 48 47 47 45 37 37 31 28 27 23 18 24 15 22 20 21 24 20 19 17 19 19 19 20 19 21 27 21 23 22 18 19 24 17 17 20 22 23 20 26 31 29 29 33 35 43 46 48
58 59 59 59 59 59 60 60 59 60 60 60 59 59 60 60 60 60 59 59 59 59 60 57 54 54 48 46 47 47 47 46 56 53 50 47 44 42 41 44 46 47 47 44 35 36 34 29 26 23 21 19 18 16 25 22 21 19 18 18 17 17 17 20 21 21 22 26 25 20 18 15 17 17 18 20 21 21 21 23 29 29 28 32 35 41 46 48
58 58 59 59 59 59 60 59 59 60 59 60 59 59 59 59 60 59 59 58 59 59 59 53 54 52 49 48 51 48 47 45 52 49 43 42 41 46 42 44 44 45 43 37 33 35 37 27 31 23 19 17 20 29 20 21 20 17 16 17 20 17 17 20 20 19 19 23 21 22 22 16 15 17 20 21 19 18 18 19 28 29 29 36 43 44 47 48
58 58 58 58 58 58 59 59 59 59 59 59 59 59 59 59 58 58 59 59 59 59 59 55 56 52 47 47 48 52 57 46 49 47 41 39 40 41 40 41 43 43 45 37 33 34 26 32 29 20 16 22 25 20 17 17 18 17 14 16 23 18 22 19 23 18 16 19 20 19 24 14 16 19 20 22 21 18 16 14 18 25 28 30 37 43 46 48
58 58 58 58 58 58 58 58 58 59 59 58 59 58 58 58 58 57 58 58 59 59 57 50 49 49 46 36 38 56 47 39 42 44 43 39 40 37 39 39 42 40 39 33 28 26 24 22 20 19 16 20 17 16 17 20 19 16 17 28 23 20 22 19 18 22 25 17 21 16 15 11 13 18 20 21 18 19 17 13 16 17 24 30 35 38 41 44
58 58 58 57 57 57 58 58 58 58 58 58 58 58 58 57 57 58 58 57 58 57 51 48 49 53 39 37 45 43 38 41 43 44 42 44 40 39 37 38 40 39 36 30 27 30 23 20 32 28 22 16 15 17 18 16 15 16 19 20 26 17 17 18 21 24 31 15 14 16 14 11 16 17 18 21 20 17 15 13 13 16 17 20 26 30 33 36
57 58 57 57 57 57 58 57 57 58 57 57 57 57 56 57 57 56 56 56 56 55 55 53 52 45 44 38 38 37 38 41 46 40 45 42 38 35 35 36 39 35 31 25 26 23 23 19 22 20 20 16 14 16 18 14 17 15 16 20 16 15 16 16 16 16 22 21 15 13 14 12 13 17 19 19 20 16 14 13 14 14 16 19 20 20 23 27
57 57 57 58 57 57 57 57 57 57 57 57 57 57 57 56 55 54 53 52 48 44 40 41 43 32 28 34 35 36 40 43 43 39 37 38 38 34 35 34 35 31 27 24 21 22 22 30 31 22 17 15 12 12 15 22 14 16 17 16 20 18 16 17 20 23 19 17 18 13 12 12 12 14 19 19 20 18 16 16 17 16 16 17 20 23 23 25
57 57 57 58 57 57 57 57 57 57 57 56 56 54 52 48 48 45 51 45 40 38 29 37 41 30 29 29 35 41 42 40 36 40 39 44 34 33 32 32 38 29 25 22 25 20 31 24 19 17 17 13 13 13 13 13 13 15 19 21 18 16 20 22 22 22 23 16 14 14 13 12 12 11 15 19 19 20 16 15 18 20 19 20 21 24 25 27
57 57 57 57 57 57 57 56 57 57 56 54 53 48 44 43 40 38 44 41 42 42 36 38 39 29 33 37 40 38 35 34 36 38 38 41 32 32 31 32 31 26 25 20 23 21 18 21 22 18 15 14 13 12 11 12 11 13 16 19 23 25 16 21 20 22 23 19 14 13 13 14 12 12 12 16 19 18 18 17 16 19 20 22 24 24 28 27
57 57 57 57 57 57 57 56 56 56 55 53 50 44 43 42 41 42 42 37 41 43 35 36 38 35 37 37 41 39 35 33 36 40 46 40 31 29 29 29 28 25 24 21 22 21 20 19 19 17 15 15 12 11 11 12 13 17 14 18 22 20 24 22 21 21 24 15 10 13 12 13 13 14 15 14 14 17 19 20 17 16 18 20 23 26 29 36
57 57 57 57 56 56 56 57 56 55 51 50 48 44 42 43 46 44 40 37 36 37 33 34 34 34 35 37 37 40 28 29 33 39 35 42 31 29 28 26 26 22 18 16 20 26 22 22 18 16 15 15 13 13 12 21 21 20 19 18 16 24 19 21 21 22 21 17 18 21 19 19 17 15 13 12 11 12 18 19 25 24 19 19 20 25 29 36
57 57 57 56 56 56 55 56 55 52 49 49 47 47 44 48 42 36 32 28 27 30 35 33 33 35 34 32 36 37 24 29 34 35 38 34 29 32 26 25 24 21 16 14 16 21 20 20 23 22 15 14 12 13 14 13 11 27 30 22 21 22 19 19 19 20 21 20 24 17 19 11 12 11 10 12 15 22 27 28 26 29 34 35 39 35 35 34
56 56 56 56 55 56 56 55 51 49 49 48 48 47 48 52 52 48 25 23 30 32 40 42 47 42 36 46 42 30 32 33 37 34 36 32 28 27 25 25 22 18 15 15 14 22 18 24 28 20 23 15 17 12 18 25 13 25 31 32 23 19 20 20 21 16 18 20 27 21 7 19 15 8 8 14 17 19 22 22 22 24 29 30 27 30 34 37
56 56 56 55 56 56 56 50 49 49 48 47 47 49 50 54 50 52 29 23 23 30 35 28 42 33 45 35 42 38 29 28 38 43 35 38 39 29 23 21 21 16 15 19 17 30 21 25 31 22 22 26 25 16 24 24 16 23 18 28 19 19 23 22 19 23 15 12 22 20 7 15 19 11 6 14 14 15 19 21 18 20 25 29 32 32 36 37
56 55 55 56 56 55 49 46 50 48 46 47 48 50 50 55 54 49 26 25 21 32 26 40 34 36 42 35 32 30 20 27 41 39 36 44 31 32 21 19 21 23 17 24 23 20 23 22 28 32 23 28 25 15 24 14 16 17 35 36 22 25 25 24 20 27 28 26 27 20 23 11 15 19 14 10 10 11 17 16 17 23 27 30 33 38 40 40
55 56 55 56 56 52 48 48 48 47 46 47 50 50 53 52 53 45 30 20 19 29 27 28 33 39 41 33 43 23 29 33 31 32 36 44 33 26 25 20 19 22 23 22 16 34 23 27 31 30 31 24 20 29 36 19 23 26 32 38 25 22 27 30 25 26 29 23 20 18 29 8 12 15 11 7 7 7 11 14 18 25 27 31 34 40 40 40
55 55 55 55 54 51 50 48 48 46 48 50 50 52 52 48 46 28 23 19 32 23 37 21 40 40 35 34 29 32 31 29 24 32 42 39 37 28 22 22 20 26 30 25 15 33 31 34 29 30 28 21 30 28 34 35 25 27 34 37 33 31 31 31 22 23 20 16 20 18 24 9 15 22 12 12 9 8 6 10 20 26 28 33 35 37 38 41
55 55 55 55 52 50 48 48 47 47 52 50 51 51 49 46 28 23 17 13 29 21 24 32 34 30 30 27 26 31 29 31 32 32 29 27 32 36 28 32 23 26 37 32 32 33 30 32 30 33 30 32 28 30 36 33 30 33 36 29 30 30 28 24 24 22 19 10 21 25 25 20 12 21 15 14 18 6 5 13 24 29 33 34 37 38 39 40
55 55 54 53 48 50 47 45 46 51 52 52 51 47 45 38 20 18 14 24 28 29 29 27 28 31 27 25 24 28 29 30 29 29 27 26 25 26 26 25 34 33 32 32 34 34 29 29 35 35 32 30 28 33 35 36 33 34 28 26 23 21 21 19 18 21 15 15 19 19 24 24 7 15 19 9 10 13 14 18 23 27 30 34 35 35 37 39
54 54 54 50 51 50 45 44 47 52 52 51 46 42 28 20 26 17 17 22 21 25 25 24 28 28 27 26 28 28 29 28 28 27 25 25 25 22 22 23 27 24 22 23 26 34 30 33 36 35 35 30 35 25 26 35 35 32 25 20 19 19 19 12 16 12 15 12 14 16 23 18 14 11 7 3 11 11 19 19 23 27 31 34 36 38 39 40
54 54 53 50 51 49 53 48 51 51 52 48 41 34 22 20 15 19 21 21 22 26 24 27 26 26 26 26 26 29 34 27 28 26 26 27 24 26 27 23 28 24 19 24 30 30 31 35 35 36 34 29 36 20 23 23 27 28 19 19 18 18 12 9 14 13 15 15 20 17 20 13 17 9 12 8 10 17 24 28 29 30 32 34 36 38 40 41
54 53 49 50 50 54 53 51 51 51 49 45 35 28 23 19 17 30 23 22 27 25 24 26 26 26 25 24 28 31 28 30 26 25 26 26 24 23 23 28 25 25 27 26 23 25 25 20 25 30 25 32 30 27 23 25 25 23 24 21 21 20 12 7 14 11 13 18 15 19 11 18 9 10 15 15 16 19 23 27 31 34 35 37 39 40 40 41
53 51 51 52 52 53 53 52 50 50 47 41 28 23 20 18 22 22 21 24 24 22 24 27 25 26 25 28 29 29 31 30 28 26 26 25 22 23 22 22 26 23 30 21 27 20 21 25 33 36 37 34 32 37 33 31 25 29 32 31 19 21 18 15 19 18 16 13 13 12 12 16 15 19 18 18 18 18 21 24 28 31 32 36 36 37 38 39
51 51 51 50 51 51 53 52 49 49 43 32 23 22 20 20 20 24 24 25 19 24 24 24 27 23 23 31 31 29 36 31 30 28 26 26 24 23 25 23 25 25 24 19 24 17 19 25 35 37 32 27 32 31 29 31 17 23 25 20 23 27 19 18 18 18 14 11 15 19 15 18 14 14 14 16 13 15 18 20 24 29 33 35 36 37 37 40
50 51 48 49 51 52 52 50 49 48 45 27 22 20 24 26 39 28 32 21 22 25 24 21 23 21 25 28 29 29 32 33 31 27 24 28 24 24 24 23 26 25 26 25 24 32 17 28 34 35 32 31 32 32 34 33 32 24 18 25 29 30 27 17 11 13 11 8 10 14 9 7 5 10 15 14 15 13 15 15 22 30 33 33 37 38 39 40
49 48 47 48 51 52 51 50 48 47 43 27 23 27 34 26 38 34 30 27 28 26 22 22 23 25 25 27 27 27 31 27 29 28 25 24 24 25 24 23 24 24 24 29 20 28 28 23 30 33 33 33 36 36 30 35 33 29 26 32 18 14 12 14 10 7 4 3 7 7 10 10 10 15 12 13 13 12 13 16 23 29 31 35 36 37 39 39
48 45 44 50 52 51 51 49 48 43 37 26 23 29 33 40 38 34 26 27 30 26 22 25 22 25 26 25 27 29 30 24 29 28 25 25 22 24 22 24 28 23 24 23 28 32 33 27 26 33 33 32 32 30 22 23 33 33 31 25 30 18 17 13 13 17 21 10 1 13 5 10 20 13 12 12 12 14 12 16 20 27 30 34 35 37 37 38
46 42 42 51 52 51 51 48 45 39 32 24 25 27 39 35 38 36 27 27 27 23 26 26 27 23 26 26 28 26 30 28 27 28 27 28 25 26 22 27 27 25 23 27 35 33 21 28 24 29 34 32 23 27 25 23 24 20 22 18 19 23 24 20 20 12 14 9 10 7 9 17 20 11 11 11 11 12 13 16 23 27 30 34 36 37 37 38
45 42 43 52 51 51 49 45 38 34 30 26 27 37 34 34 37 38 39 31 34 37 30 26 26 24 25 26 26 29 28 30 28 26 27 26 23 23 28 25 29 26 29 33 31 31 23 21 27 27 27 25 28 33 33 35 26 24 22 20 17 19 15 12 14 18 15 11 10 5 10 15 21 13 12 8 8 13 16 18 25 27 31 34 36 36 37 38
42 38 42 51 51 51 45 38 35 33 32 27 26 36 37 39 37 37 38 39 34 33 34 27 28 28 27 26 27 28 27 29 28 26 28 26 24 29 29 28 25 24 22 20 22 36 31 31 28 26 27 28 33 34 32 32 33 31 27 24 24 22 17 15 12 19 13 13 16 18 7 22 20 18 18 18 19 18 18 21 26 28 32 34 35 36 38 39
42 40 49 52 51 51 41 33 35 33 31 33 39 39 38 37 36 38 34 37 35 40 35 31 26 27 31 30 30 28 28 28 29 26 30 31 26 23 36 27 25 24 26 27 31 30 35 29 28 27 28 31 31 34 34 33 34 29 30 30 27 19 20 19 17 19 19 14 6 10 5 17 25 27 24 22 24 23 22 23 26 28 32 34 35 36 39 38
43 43 45 51 51 50 40 30 31 31 30 37 37 39 42 38 36 35 35 35 35 36 33 36 30 25 30 34 28 26 28 25 31 30 29 31 27 36 35 27 24 26 23 24 19 30 21 26 26 25 24 24 24 30 29 31 31 27 24 27 30 31 30 24 21 21 17 20 19 14 9 19 29 25 28 22 21 15 18 19 27 29 33 34 34 37 38 38
44 45 45 47 49 48 40 34 30 30 32 33 36 35 37 40 39 37 34 35 38 32 35 32 32 33 35 33 29 30 29 28 28 32 37 32 34 38 40 34 27 23 42 38 33 31 28 29 26 22 19 18 18 19 21 24 24 26 31 30 28 28 30 19 17 16 12 21 17 12 15 16 15 21 21 21 20 15 15 20 21 31 33 33 35 38 38 38
40 34 41 43 46 45 44 44 41 32 33 34 32 35 33 36 40 43 40 41 40 41 38 39 38 33 32 31 30 29 28 36 31 29 28 28 31 33 38 37 33 37 35 37 33 26 24 28 25 22 19 18 19 22 25 30 26 24 26 27 28 28 29 24 22 20 17 23 19 18 17 19 16 16 20 21 20 16 16 19 22 33 33 34 36 37 37 37
41 37 37 35 43 43 41 41 40 34 32 32 28 32 30 32 37 39 43 35 39 38 38 36 35 30 31 29 29 29 29 31 33 30 28 30 35 35 36 38 35 36 36 33 32 29 28 23 27 26 24 21 23 25 29 26 24 24 25 26 28 27 27 26 22 19 21 18 18 24 24 19 16 17 17 20 21 19 19 18 19 32 33 35 37 36 37 37
35 39 40 42 36 35 37 38 39 34 35 31 30 31 31 33 33 33 39 42 40 39 33 36 35 31 30 28 29 26 29 30 32 28 33 34 33 34 30 36 34 36 33 31 35 27 25 22 27 26 26 28 32 30 29 27 26 26 26 26 27 28 27 25 25 24 25 22 17 20 24 21 17 18 17 18 19 16 16 16 19 30 34 36 35 35 36 36
39 38 40 41 35 38 38 38 39 35 34 30 31 30 31 31 29 34 36 39 39 36 38 28 32 33 31 31 28 27 29 26 26 33 29 31 28 30 28 29 31 36 33 30 29 35 20 22 26 27 24 29 32 31 32 27 27 28 28 28 28 28 27 25 24 24 24 24 24 21 23 24 23 21 18 20 22 19 17 20 24 33 34 35 34 34 35 36
33 36 36 40 41 37 36 37 37 35 32 31 30 29 32 29 29 35 38 35 32 33 40 33 32 34 32 33 30 27 29 27 26 29 34 30 27 28 26 29 29 28 32 28 30 27 25 21 29 26 21 23 32 31 31 31 30 26 29 30 30 29 28 28 26 25 26 25 24 25 25 25 26 26 25 29 29 28 21 17 18 28 35 34 34 34 35 36
35 37 35 37 36 37 35 36 35 33 31 29 30 31 32 30 30 34 39 42 30 29 35 32 33 35 34 34 32 31 34 31 32 32 33 29 25 30 25 29 29 28 29 28 27 29 25 25 29 24 21 20 29 26 29 28 26 26 27 31 31 30 27 28 27 26 25 23 24 24 24 22 22 28 31 29 26 24 22 20 19 26 34 34 33 33 34 35
39 40 38 39 34 36 34 35 34 32 29 29 31 32 31 30 33 36 35 40 42 42 36 36 35 33 34 34 32 37 41 41 38 35 33 34 34 34 39 33 28 28 28 28 30 27 25 27 24 24 21 20 30 27 25 23 21 19 22 28 32 31 28 29 28 28 27 26 24 24 21 22 23 27 24 27 25 25 25 25 25 29 33 33 33 32 33 34